Regional Weather Roundup
Issued by NWS

Home | Current Version | Previous Version | Text Only | Print | Product List | Glossary On
Versions: 1 2 3 4 5 6 7 8 9 10 11 12 13 14 15 16 17 18 19 20 21 22 23 24 25 26 27 28 29 30 31 32 33 34 35 36 37 38 39 40 41 42 43 44 45 46 47 48 49 50
000
ASUS43 KMKX 270959
RWRWI

WISCONSIN REGIONAL WEATHER ROUNDUP
NATIONAL WEATHER SERVICE MILWAUKEE/SULLIVAN WI
500 AM CDT FRI MAR 27 2015

NOTE: "FAIR" INDICATES FEW OR NO CLOUDS BELOW 12,000 FEET WITH NO
SIGNIFICANT WEATHER AND/OR OBSTRUCTIONS TO VISIBILITY.

WIZ001-002-006>008-014>016-023>028-271100-
NORTHWEST WISCONSIN

CITY           SKY/WX    TMP DP  RH WIND       PRES   REMARKS
SUPERIOR ARPT  FAIR      18   7  61 N6        30.27F WCI  10
ASHLAND        CLEAR     14   6  70 NW7       30.25R WCI   4
HAYWARD        CLEAR     11   6  81 CALM      30.22R
SIREN          CLEAR     13   3  63 CALM      30.25S
CUMBERLAND     FAIR      14   5  67 N5        30.22S WCI   6
RICE LAKE      FAIR      18   6  59 NW3       30.24R
CHETEK         FAIR      17   7  65 CALM      30.23R
LADYSMITH      CLEAR     17   8  68 N6        30.22R WCI   8
EAU CLAIRE     NOT AVBL
MENOMONIE      CLEAR     18   9  68 N5        30.23S WCI  11
NEW RICHMOND   CLEAR     17   6  64 N5        30.24S WCI   9
OSCEOLA        CLEAR     18   7  61 N3        30.28S
$$

WIZ003>005-009-010-017-018-271100-
NORTH CENTRAL WISCONSIN

CITY           SKY/WX    TMP DP  RH WIND       PRES   REMARKS
MANITOWISH WTR PTCLDY     8   7  94 CALM      30.14S
ARBOR VITAE    LGT SNOW  11   9  89 CALM      30.14R
WOODRUFF       LGT SNOW  11   9  89 CALM      30.14R
RHINELANDER    CLEAR      8   4  83 NW3       30.14R
EAGLE RIVER    CLEAR      5   1  83 NW3       30.13R
LAND O LAKES   CLEAR      3   0  86 CALM      30.14R
PHILLIPS       CLEAR     11   6  80 CALM      30.16R
TOMAHAWK       CLEAR      1  -2  86 CALM      30.16S
MEDFORD        CLEAR     10   5  79 N3        30.16R
MERRILL        PTCLDY    10   7  86 CALM      30.17R
$$

WIZ029-030-035-036-043>047-271100-
CENTRAL WISCONSIN

CITY           SKY/WX    TMP DP  RH WIND       PRES   REMARKS
WAUSAU         CLEAR     14   6  70 N6        30.16R WCI   5
MOSINEE        CLEAR     16   9  73 N7        30.17R WCI   6
MARSHFIELD     CLEAR     15   7  70 N8        30.17R WCI   4
STEVENS POINT  CLOUDY    14   8  76 CALM      30.17R
WAUPACA        MOCLDY    18   7  64 NW5       30.18R WCI  11
WAUTOMA        NOT AVBL
WISC RAPIDS    PTCLDY    15   5  64 N6        30.19R WCI   6
CAMP DOUGLAS   CLEAR     12   9  88 W6        30.19R WCI   2
$$

WIZ011>013-019>022-031-037>040-048>050-271100-
NORTHEAST WISCONSIN

CITY           SKY/WX    TMP DP  RH WIND       PRES   REMARKS
ANTIGO         CLEAR      8   4  83 NW6       30.14R WCI  -2
SHAWANO        CLEAR     17   8  67 NW6       30.17S WCI   8
OCONTO         CLEAR     16   8  70 NW7       30.16S WCI   6
STURGEON BAY   CLOUDY    16   7  67 NW15      30.16R WCI   1
GREEN BAY      CLEAR     19   9  65 NW10      30.16S WCI   7
MANITOWOC      NOT AVBL
APPLETON       CLEAR     18   9  68 NW8       30.15S WCI   7
CLINTONVILLE   CLEAR     18   9  68 N6        30.17S WCI   9
OSHKOSH        CLEAR     18   7  62 N10       30.16R WCI   6
$$

WIZ032>034-041-042-053>061-271100-
SOUTHWEST WISCONSIN

CITY           SKY/WX    TMP DP  RH WIND       PRES   REMARKS
LA CROSSE      CLEAR     21   9  59 N5        30.22S WCI  15
SPARTA         CLEAR     12   8  84 CALM      30.21S
VIROQUA        CLEAR     16   7  68 N3        30.17R
BOSCOBEL       CLEAR     21   6  52 N6        30.21R WCI  13
PRAIRIE DU CHI CLEAR     24   7  49 N5        30.21R WCI  18
PLATTEVILLE    CLEAR     21  12  68 N10       30.15R WCI  10
$$

WIZ056-057-062-063-064-067-068-271100-
SOUTH CENTRAL WISCONSIN

CITY           SKY/WX    TMP DP  RH WIND       PRES   REMARKS
REEDSBURG      CLEAR     17   6  62 N5        30.18R WCI  10
BARABOO/DELLS  CLEAR     17   5  59 N6        30.16S WCI   9
LONE ROCK      NOT AVBL
MINERAL POINT  CLEAR     21   7  53 N8        30.14R WCI  12
MADISON        PTCLDY    19   7  59 N10       30.15R WCI   7
MIDDLETON      CLEAR     21   9  58 N8        30.15S WCI  12
WATERTOWN      PTCLDY    19   7  59 N6        30.13R WCI  11
MONROE         CLEAR     21   9  58 N13G20    30.12R WCI   9
JANESVILLE     CLEAR     23   9  54 N10       30.12S WCI  12
$$

WIZ051-052-058>065-066-070>072-271100-
SOUTHEAST WISCONSIN

CITY           SKY/WX    TMP DP  RH WIND       PRES   REMARKS
MILWAUKEE      MOCLDY    20   5  52 N10       30.12R WCI   9
WAUKESHA       CLOUDY    19   5  53 N8        30.13R WCI   9
MILWAUKEE/TIMM CLOUDY    21   7  53 N10       30.13R WCI  10
RACINE         CLOUDY    22   9  57 N16       30.13R WCI   8
BURLINGTON     MOCLDY    23  15  70 N15G21    30.10R WCI  10
KENOSHA        CLOUDY    23  13  65 N17G23    30.11R WCI   9
FOND DU LAC    CLEAR     18   7  62 N8        30.15R WCI   8
SHEBOYGAN      CLEAR     18   7  62 N9        30.13S WCI   7
WEST BEND      CLEAR     18   5  57 N8        30.12S WCI   7
JUNEAU         CLEAR     18   6  58 N9        30.15R WCI   7
$$

LSZ147-162-271100-
LAKE SUPERIOR

STATION/POSITION TIME  TEMP    WIND        PRES    WAVE
                       AIR SEA DIR/SP/G            HT/PER
                 (UTC) (F)     (DEG/KT/KT) (MB)    (FT/S)
DEVILS ISLAND    0900   21      20/ 15/ 18 1025.8R
PORT WING        0900   22      30/ 11/ 18 1024.7S
SAXON HARBOR     0900   23      20/ 11/ 15 1023.4
$$

LMZ867-665-643>646-271100-
LAKE MICHIGAN

STATION/POSITION TIME  TEMP    WIND        PRES    WAVE
                       AIR SEA DIR/SP/G            HT/PER
                 (UTC) (F)     (DEG/KT/KT) (MB)    (FT/S)
NORTHPORT PIER   0911   19     350/ 12/ 17 1020.7S
SISTER BAY       0902   18     360/ 15/ 18   N/A
KEWAUNEE LAKESHO 0900          340/  6/ 11 1019.8F
SHEBOYGAN LAKESH 0900   20     330/ 17/ 20 1021.5R
PORT WASHINGTON  0900   20     350/  5/ 15 1021.0S
MILWAUKEE LAKESH 0900   23     350/ 17/ 21   N/A
KENOSHA   LAKESH 0900   26      20/ 25/ 30 1018.6S
$$

TC  - TEMPERATURE IN CELSIUS
VSB - VISIBILITY IN STATUTE MILES
WCI - WIND CHILL INDEX
HX  - HEAT INDEX




USA.gov is the U.S. government's official web portal to all federal, state and local government web resources and services.